Weather in Thessaloniki

Greece     40°37′56″N   22°56′08″E
temp.,
°C
wind,
m/s
gust,
m/s
humid.,
%
clouds,
%
prec.,
mm/h
press.,
hPa
HPBL,
m
18 may, tue
tue1800:00+19ene115542 0.0 100711
03:00+18nw116214 0.0 100713
06:00+16nnw116817 0.0 100711
09:00+21nnw464923 0.0 1009583
12:00+24nw773724 0.0 10101930
15:00+24nnw69365 0.0 10101685
18:00+24nnw79324 0.0 10111632
21:00+19nne363785 0.0 1012204
19 may, wed
wed1900:00+17e113876 0.0 101320
03:00+15ene11420 0.0 101416
06:00+13e22665 0.0 101450
09:00+19ese12520 0.0 1014425
12:00+24ssw34409 0.0 10121397
15:00+26ssw5438100 0.0 10111520
18:00+25sw44415 0.0 1009838
21:00+19nw11615 0.0 100956
20 may, thu
thu2000:00+17nne11715 0.0 100927
03:00+16nne11747 0.0 100916
06:00+15n11790 0.0 100814
09:00+20nnw23510 0.0 1009509
12:00+24wnw4731100 0.0 10082106
15:00+26w482797 0.0 10072990
18:00+21nnw884399 0.0 1008851
21:00+17nnw5105499 0.0 1010477
21 may, fri
fri2100:00+15nnw6125899 0.1 1012635
03:00+14nnw7134998 0.1 1012700
06:00+12nnw9155725 0.0 1013868
09:00+14nnw1114575 0.0 10141094
12:00+16nnw13165124 0.0 10141424
15:00+19nnw1114413 0.0 10141734
18:00+19nnw1015420 0.0 10141881
21:00+15nnw49550 0.0 1016666
22 may, sat
sat2200:00+12n37654 0.0 1017174
03:00+11n23700 0.0 101765
06:00+11nne22710 0.0 101621
09:00+17nnw24500 0.0 1016479
12:00+22nw34315 0.0 10161473
15:00+25wnw352196 0.0 10151803
18:00+25sw43250 0.0 1014996
21:00+18sw12440 0.0 101577